Regional Weather Roundup
Issued by NWS Kansas City/Pleasant Hill, MO

Home | Current Version | Previous Version | Text Only | Print | Product List | Glossary On
Versions: 1 2 3 4 5 6 7 8 9 10 11 12 13 14 15 16 17 18 19 20 21 22 23 24 25 26 27 28 29 30 31 32 33 34 35 36 37 38 39 40 41 42 43 44 45 46 47 48 49 50
000
ASUS43 KEAX 161811
RWREAX

WEATHER ROUNDUP FOR EASTERN KANSAS AND NORTHWEST MISSOURI
NATIONAL WEATHER SERVICE KANSAS CITY/PLEASANT HILL MO
100 PM CDT TUE SEP 16 2014

KSZ040-057-103>105-MOZ028-029-037-043-161900-
...KANSAS CITY METROPOLITAN AREA...

CITY           SKY/WX    TMP DP  RH WIND       PRES   REMARKS
K.C. INTL      MOSUNNY   64  52  64 VRB5      30.18F
6HR MIN TEMP:  46; 6HR MAX TEMP:  64;

K.C. DOWNTOWN  SUNNY     67  51  56 NE7       30.17F
6HR MIN TEMP:  49; 6HR MAX TEMP:  67;

LEES SUMMIT    SUNNY     66  51  58 CALM      30.18F
6HR MIN TEMP:  47; 6HR MAX TEMP:  66;

OLATHE - IXD   SUNNY     66  52  60 VRB5      30.18F
6HR MIN TEMP:  43; 6HR MAX TEMP:  66;

OLATHE - OJC   SUNNY     66  54  65 CALM      30.17F
6HR MIN TEMP:  47; 6HR MAX TEMP:  66;

LAWRENCE       SUNNY     66  50  56 VRB3      30.17F

$$

MOZ001>008-011>017-020>025-030>033-038>040-044>046-053-054-161900-
...NORTHERN AND CENTRAL MISSOURI...

CITY           SKY/WX    TMP DP  RH WIND       PRES   REMARKS
ST. JOSEPH     SUNNY     64  51  62 E6        30.19F
6HR MIN TEMP:  40; 6HR MAX TEMP:  64;

MOSBY          CLEAR     64  50  59 E5        30.18F
WARRENSBURG    MOSUNNY   66  52  59 CALM      30.17F HAZE
WHITEMAN AFB   PTSUNNY   64  54  71 E3        30.18F
6HR MIN TEMP:  55; 6HR MAX TEMP:  65;

CLINTON        CLOUDY    64  57  77 CALM      30.18F
SEDALIA        CLOUDY    64  54  69 CALM      30.19F
6HR MIN TEMP:  57; 6HR MAX TEMP:  66;

WARSAW         NOT AVBL
MARSHALL       SUNNY     70  54  56 NE5       30.19F
CHILLICOTHE      N/A     65  49  56 VRB6      30.20F
6HR MIN TEMP:  45; 6HR MAX TEMP:  65;

MOBERLY        MOSUNNY   66  48  52 E3        30.20F
KIRKSVILLE     SUNNY     63  47  55 CALM      30.21F
6HR MIN TEMP:  40; 6HR MAX TEMP:  63;


$$

MOZ041-047>049-056>058-063>065-088>090-097-161900-
...EASTERN AND SOUTHERN MISSOURI...

CITY           SKY/WX    TMP DP  RH WIND       PRES   REMARKS
ST. LOUIS INTL CLOUDY    63  53  70 CALM      30.20F
6HR MIN TEMP:  58; 6HR MAX TEMP:  63; 6HR PCP: TRACE;

SPIRIT OF STL  PTSUNNY   64  53  67 N5        30.19F
COLUMBIA       SUNNY     67  54  63 N7        30.19F
JEFFERSON CITY PTSUNNY   65  53  65 E5        30.18F
MEXICO         MOSUNNY   66  55  68 NE3       30.19F
HANNIBAL       MOSUNNY   64  46  52 CALM      30.20F
ROLLA          CLOUDY    61  55  81 CALM      30.18F
LEBANON        CLOUDY    63  59  88 E5        30.19F
OSAGE BEACH    CLOUDY    64  55  72 SE3       30.19F
SPRINGFIELD    CLOUDY    69  57  65 E5        30.16F
BRANSON        CLOUDY    68  61  77 N5        30.18F
NEVADA         CLOUDY    66  57  72 E3        30.18F
JOPLIN         CLOUDY    67  61  81 E7        30.16F
WEST PLAINS    CLOUDY    66  57  72 VRB5      30.19F

$$

IAZ060-094-KSZ022-034>040-054-083-096-NEZ052-066-093-161900-
...KANSAS...SOUTHEAST NEBRASKA AND IOWA...

CITY           SKY/WX    TMP DP  RH WIND       PRES   REMARKS
TOPEKA         SUNNY     68  50  52 VRB5      30.17F
6HR MIN TEMP:  45; 6HR MAX TEMP:  68;

MANHATTAN      SUNNY     68  49  50 MISG      30.16F
EMPORIA        SUNNY     69  50  50 VRB3      30.16F
CHANUTE        MOSUNNY   71  59  65 VRB3      30.16F
WICHITA        CLOUDY    70  54  56 E6        30.15F
OMAHA          SUNNY     63  46  54 S9        30.18F
LINCOLN        SUNNY     66  46  48 S8        30.16F
FALLS CITY     SUNNY     66  49  54 S7        30.18F
LAMONI         SUNNY     62  46  55 CALM      30.20F
DES MOINES     MOSUNNY   65  45  48 S7        30.19F

$$




USA.gov is the U.S. government's official web portal to all federal, state and local government web resources and services.